Location: Bluff Heights
(33.7692°N, 118.1592°W)
Time: 14:05:05
(UTC+00:00)

Vanguard 1 Rocket - Pass Details

Date: 02 October 2021
Orbit: 650 x 4226 km, 34.3° (Epoch: 21 October)

Event Time Altitude Azimuth Distance (km) Brightness Sun altitude
Rises 02:36:14 0° 247° (WSW) 3,288 11.5 -13.3°
Reaches altitude 10° 02:38:52 10° 244° (WSW) 2,174 10.3 -13.8°
Maximum altitude 02:43:24 62° 164° (SSE) 725 6.8 -14.8°
Enters shadow 02:45:52 25° 90° (E) 1,326 7.6 -15.3°
